MOVE-II
1 43780U 18099Y 20065.20319481 .00000601 00000-0 59714-4 0 9997
2 43780 97.7158 138.5015 0013914 176.9354 183.1954 14.95293806 68335
SNUSat 2
1 43782U 18099AA 20064.67155699 .00000483 00000-0 49131-4 0 9998
2 43782 097.7157 138.0063 0013233 167.6343 192.5206 14.95192076068266
SnugLite
1 43784U 18099AC 20064.44578539 -.00000198 00000-0 -12719-4 0 9994
2 43784 97.7125 137.6407 0015240 177.1373 182.9937 14.95285064 68241
ITASat 1
1 43786U 18099AE 20065.31460785 -.00000213 00000-0 -14098-4 0 9996
2 43786 97.7176 138.8099 0015409 173.3529 186.7899 14.95269592 68378
EAGLET 1
1 43790U 18099AJ 20065.13240160 .00000263 00000-0 28828-4 0 9993
2 43790 97.7163 138.8386 0013723 178.1795 181.9478 14.95647048 68054
ESEO
1 43792U 18099AL 20065.20311049 .00000233 00000-0 26205-4 0 9992
2 43792 97.7138 138.7810 0013535 174.4439 185.6935 14.95570874 68123
CSIM
1 43793U 18099AM 20064.47357528 .00000665 00000-0 64457-4 0 9993
2 43793 97.7126 137.9907 0013601 174.2093 185.9288 14.95937821 67994
Astrocast 0.1
1 43798U 18099AS 20065.33441823 .00000210 00000-0 23988-4 0 9996
2 43798 97.7154 139.1168 0013178 157.5660 202.6140 14.95824230 68383
JO-97
1 43803U 18099AX 20065.34097113 .00000605 00000-0 59847-4 0 9994
2 43803 97.7135 138.6806 0015527 173.5233 186.6191 14.95430968 68373
Suomi 100
1 43804U 18099AY 20065.14038971 .00000586 00000-0 58138-4 0 9990
2 43804 97.7133 138.4755 0015575 174.3757 185.7641 14.95422955 68351
Al Farabi 2
1 43805U 18099AZ 20065.39003529 .00000074 00000-0 11874-4 0 9997
2 43805 97.7138 138.7785 0015558 173.9394 186.2018 14.95524994 68390
PWSat 2
1 43814U 18099BJ 20065.50046281 .00018295 00000-0 12007-2 0 9993
2 43814 97.7831 144.5381 0012710 165.9076 194.2595 15.07641488 68034
CHOMPTT
1 43855U 18104G 20065.74789954 .00001044 00000-0 42676-4 0 9993
2 43855 85.0348 243.7879 0019883 74.4968 285.8515 15.22787563 67746
ISAT
1 43879U 18111D 20065.37020092 .00000553 00000-0 54201-4 0 9998
2 43879 97.7089 334.4437 0011739 228.3562 131.6655 14.96168442 62910
UWE-4
1 43880U 18111E 20064.69834583 .00000744 00000-0 70694-4 0 9998
2 43880 097.7099 333.9981 0010923 231.0736 128.9513 14.96402260064822
Sparrow
1 43881U 18111F 20065.28636196 .00000702 00000-0 66922-4 0 9998
2 43881 97.7099 334.6330 0011291 227.2318 132.7954 14.96454223 62917
Lume 1
1 43908U 18111AJ 20065.30530373 .00000926 00000-0 39885-4 0 9997
2 43908 97.2750 328.2618 0022200 147.3698 212.8917 15.24823517 66156
FO-98
1 43933U 19003B 20065.86514839 .00000569 00000-0 27844-4 0 9991
2 43933 97.2453 119.4940 0016127 243.8565 231.5673 15.21961874 62775
FO-99
1 43937U 19003F 20065.85473780 .00001039 00000-0 45315-4 0 9999
2 43937 97.2412 120.4395 0022679 227.9446 242.7000 15.24130268 62855
Delphini 1
1 44030U 98067PW 20064.57154633 .00013438 00000-0 15336-3 0 9997
2 44030 51.6354 125.6544 0004882 40.3974 319.7382 15.62543973 62098
MYSat 1
1 44045U 18092F 20065.25082728 .00002685 00000-0 85900-4 0 9991
2 44045 051.6445 188.0366 0010823 306.8878 053.1117 15.36123393059277
AstroCast 0.2
1 44083U 19018F 20065.19775741 .00000898 00000-0 42981-4 0 9995
2 44083 97.4341 127.6204 0013724 170.5742 266.6750 15.21462205 51527
AISTechSat 3
1 44103U 19018AB 20065.76921904 .00000654 00000-0 30759-4 0 9995
2 44103 97.4214 128.2903 0013469 183.5662 302.4677 15.22994188 51655
AISat 1
1 44104U 19018AC 20064.59463814 .00000794 00000-0 28063-4 0 9997
2 44104 097.4757 133.5589 0057337 224.0197 135.6471 15.30869998051762
Raavana-1
1 44329U 98067QE 20064.56767374 .00007809 00000-0 11769-3 0 9990
2 44329 051.6395 139.2017 0006651 335.8896 024.1783 15.55811268040669
Uguisu
1 44330U 98067QF 20064.57541553 .00007707 00000-0 11650-3 0 9998
2 44330 51.6395 139.2506 0006569 334.4213 25.6453 15.55750961 40640
NepaliSat-1
1 44331U 98067QG 20064.49778884 .00007414 00000-0 11198-3 0 9991
2 44331 51.6395 139.4848 0006677 336.6966 23.3722 15.55839467 40644
Prox-1
1 44339U 19036A 20065.62602507 .00000774 00000-0 13428-3 0 9992
2 44339 24.0046 45.1298 0011705 99.2618 260.9221 14.52865227 37014
Oculus-ASR
1 44348U 19036K 20065.17429245 .00006366 00000-0 92908-4 0 9992
2 44348 28.5224 346.2684 0375677 276.8362 78.9633 15.00450973 38113
Armadillo
1 44352U 19036P 20065.15124135 .00009284 00000-0 13795-3 0 9993
2 44352 028.5366 344.4121 0367013 279.3380 076.5898 15.02263833038086
NO-104
1 44354U 19036R 20064.17607391 .00006469 00000-0 93283-4 0 9999
2 44354 28.5349 351.0267 0372627 268.2630 87.5254 15.01334537 37969
NO-103
1 44355U 19036S 20065.09880353 .00015670 00000-0 22741-3 0 9997
2 44355 28.5348 340.9788 0358611 284.6181 71.4914 15.04833444 38144
CP9
1 44360U 19036X 20065.40670206 .00022936 -60621-5 27084-3 0 9991
2 44360 28.5214 331.2830 0349202 300.7429 55.9187 15.09784796 38143
Move-IIb
1 44398U 19038N 20064.54035084 .00000922 00000-0 56925-4 0 9994
2 44398 097.5237 027.2072 0026575 126.4915 233.8769 15.12082309036723
SONATE
1 44400U 19038Q 20064.68596904 .00000406 00000-0 27397-4 0 9994
2 44400 97.5265 27.3696 0026590 124.6378 235.7365 15.11847106 36749
BeeSat 9
1 44412U 19038AC 20064.39083413 .00000738 00000-0 46356-4 0 9995
2 44412 97.5256 27.1311 0024029 130.5987 229.7339 15.12115789 36392
JAISAT-1
1 44419U 19038F 20064.70925128 .00000822 00000-0 50552-4 0 9992
2 44419 097.5257 027.6299 0022936 128.8619 231.4663 15.12598494036766
LightSail-2
1 44420U 19036AC 20065.15589771 .00005692 00000-0 12533-2 0 9997
2 44420 24.0117 46.3543 0022373 90.9393 269.3599 14.54660717 35109
Taurus 1
1 44530U 19059C 20065.76062766 .00001138 00000-0 33625-3 0 9998
2 44530 98.5730 145.8530 0017388 112.3668 247.9367 14.45307948 25369
MO-106
1 44830U 19084G 20065.30319164 .00040403 00000-0 33540-3 0 9990
2 44830 96.9928 294.0689 0033773 275.8696 83.8717 15.69307220 14079
TRSI-Sat
1 44831U 19084H 20064.40972866 .00028749 00000-0 24013-3 0 9999
2 44831 96.9935 293.1907 0033825 278.4721 81.2708 15.69216418 13942
MO-105
1 44832U 19084J 20064.26933382 .00029597 00000-0 24311-3 0 9997
2 44832 96.9936 293.0747 0033246 278.7616 80.9883 15.69640097 13919
Duchifat 3
1 44854U 19089C 20065.84965941 .00000345 00000-0 34350-4 0 9992
2 44854 36.9698 350.5944 0009489 302.8046 57.1834 14.98986048 12740
OPS-SAT
1 44878U 19092F 20065.43570353 -.00000066 00000-0 00000 0 0 9997
2 44878 97.4659 250.4951 0013225 3.5118 356.6308 15.15287938 11787
FloripaSat 1
1 44885U 19093G 20065.75277943 .00000175 00000-0 28827-4 0 9992
2 44885 97.9655 142.5234 0015429 31.2058 329.0053 14.81977335 11342
SwampSat-2
1 45115U 19071E 20065.38425725 .00008345 00000-0 26604-3 0 9994
2 45115 51.6417 146.0887 0013520 43.4218 316.7826 15.33306761 5147
HuskySat-1
1 45119U 19071J 20064.73007907 .00001100 00000-0 45369-4 0 9996
2 45119 51.6440 149.2209 0012703 38.7677 321.4214 15.33186283 5057
QARMAN
1 45257U 98067RA 20064.51161639 .00003945 00000-0 77136-4 0 9996
2 45257 51.6421 146.3227 0008483 336.9317 23.1290 15.49973238 2228
AztechSat-1
1 45258U 98067RB 20064.51180095 .00003200 00000-0 64182-4 0 9995
2 45258 51.6417 146.3232 0006268 319.1979 40.8540 15.49932726 2193
